[[{"header":{"parameterUnit":"m.s-1","parameterCategory":1,"la1":30.2991,"la2":30.254,"lo1":-89.0895,"lo2":-89.0444,"dy":0.0017,"dx":0.0017,"nx":28,"ny":28,"refTime":"2025-07-12T21:00:00:Z","depth":0,"parameterNumber":2,"parameterNumberName":"U-component_of_WINDS"},"data":[0,0,0,0,0,0,0,0,0,0,0,0,0,0,0,0,0,0,0,0,0,0,0,0,0,0,0,0,0,0,0,0,0,0,0,0,0,0,0,0,0,0,0,0,0,0,0,0,0,0,0,0,0,0,0,0,0,0,2.9993,2.9995,0,3.0106,3.0107,3.0108,3.0065,3.0062,3.006,3.0057,3.0174,3.018,3.0185,0,0,0,0,0,0,0,0,0,0,0,0,0,2.9744,2.9749,2.9993,2.9995,2.9996,3.0105,3.0107,3.0108,3.0066,3.0062,3.0059,3.0056,3.0173,3.0179,3.0186,0,0,0,0,0,0,0,0,0,0,0,0,0,2.9854,2.9751,2.9993,2.9988,2.9988,3.0105,3.0107,3.0109,3.0066,3.0062,3.0058,3.0055,3.017,3.0179,3.0187,3.0316,0,0,3.0212,3.0216,0,0,0,0,0,0,0,0,2.9848,2.9863,2.9987,2.9988,2.9989,3.0067,3.0062,3.0178,3.0067,3.0037,3.0057,3.0053,3.0142,3.0152,3.0182,3.0321,3.0326,3.0213,3.0218,3.0221,3.0224,0,0,0,0,0,0,0,2.984,2.9858,3.0038,2.9989,2.999,2.9981,2.9992,3.0084,3.011,3.0039,3.0036,3.005,3.0142,3.0174,3.0185,3.0328,3.0213,3.022,3.0225,3.0228,3.0579,3.0583,0,0,0,0,0,0,2.9832,2.9852,3.0034,3.0041,2.9908,2.9988,3.0001,3.0046,3.0109,3.0115,3.0053,3.0048,3.0162,3.0175,3.0188,3.0344,3.0221,3.0229,3.0234,3.0575,3.058,3.0585,0,0,0,0,0,0,2.9827,2.9849,3.003,2.9946,2.9968,2.9997,3.0048,3.005,3.0083,3.0119,3.0124,3.0081,3.0159,3.0177,3.0284,3.0348,3.0233,3.024,3.057,3.0576,3.0582,3.0656,0,0,0,0,0,0,2.982,2.9847,2.9896,2.9947,2.9973,3.0123,3.0052,3.0055,3.0097,3.0091,3.0147,3.0153,3.0158,3.0272,3.0293,3.0357,3.0247,3.0564,3.0573,3.058,3.0648,3.0664,3.0678,0,0,0,0,0,2.9811,2.9912,2.9898,2.9921,3.0034,3.0127,3.0142,3.0145,3.0102,3.0152,3.0175,3.0151,3.0337,3.0284,3.0306,3.0374,3.056,3.057,3.058,3.0641,3.0661,3.0678,0,0,0,0,0,0,2.9868,2.9919,2.9904,3.0025,3.0072,3.0119,3.0182,3.0165,3.0226,3.0218,3.022,3.0233,3.0344,3.0369,3.0309,3.0502,3.0442,3.0457,3.0482,3.0501,3.0515,3.0507,3.0254,0,0,0,0,0,2.9895,2.9965,3.0006,3.0109,3.0133,3.0154,3.0194,3.0192,3.0241,3.0261,3.0293,3.0342,3.0411,3.0457,3.0523,3.0651,3.0664,3.0709,3.0724,3.0736,3.0749,3.082,3.0841,3.0617,3.0617,3.0617,0,0,2.9951,2.9987,3.0031,3.0121,3.0157,3.0231,3.0171,3.0251,3.0306,3.0274,3.0377,3.0402,3.0457,3.0576,3.0629,3.06,3.0814,3.0749,3.0758,3.0765,3.0832,3.0853,3.0872,3.0624,3.0622,3.0621,0,0,3.009,3.0124,3.0214,3.0251,3.0306,3.032,3.0341,3.0392,3.0407,3.051,3.0488,3.0554,3.0673,3.0714,3.075,3.0905,3.0885,3.0926,3.1005,3.1074,3.1091,3.1107,3.1163,3.1183,3.0939,3.0939,3.0939,0,3.0152,3.0262,3.0262,3.0344,3.0385,3.0358,3.045,3.0486,3.0561,3.059,3.0556,3.0706,3.0741,3.0869,3.0907,3.0937,3.0962,3.092,3.1088,3.1104,3.1119,3.1172,3.1193,3.0944,3.0943,3.0943,3.0943,0,3.0336,3.0412,3.0478,3.055,3.0598,3.0684,3.0699,3.0747,3.0742,3.0759,3.0865,3.0906,3.098,3.1011,3.1006,3.1138,3.1119,3.1087,3.1027,3.1145,3.1195,3.1216,3.0951,3.0949,3.0948,3.0946,0,0,3.0515,3.0586,3.061,3.0643,3.0702,3.0761,3.0847,3.0919,3.0961,3.1013,3.1085,3.1187,3.1158,3.12,3.1199,3.1259,3.1381,3.122,3.1222,3.1249,3.153,3.1554,3.1577,3.1367,3.1371,3.1374,3.1525,0,3.0659,3.0809,3.0812,3.0949,3.102,3.0996,3.1071,3.1116,3.1134,3.1197,3.1217,3.129,3.1246,3.1271,3.1329,3.1353,3.1437,3.1342,3.1436,3.1439,3.1423,3.1603,3.1629,3.1769,3.1545,3.1548,3.1551,0,3.0848,3.0906,3.105,3.1099,3.1129,3.1196,3.1262,3.1323,3.1374,3.1383,3.1429,3.142,3.1508,3.1445,3.1567,3.1503,3.1541,3.1559,3.1564,3.1573,3.1502,3.1618,3.1814,3.1835,3.1581,3.1579,3.1577,0,3.0965,3.1078,3.118,3.1208,3.1268,3.1316,3.1343,3.139,3.1433,3.1491,3.152,3.1588,3.1625,3.1679,3.1689,3.1641,3.1811,3.1749,3.1822,3.1822,3.1859,3.1857,3.2065,3.1883,3.1883,3.1882,3.1882,0,3.1126,3.1215,3.1233,3.1295,3.1395,3.1398,3.1497,3.152,3.1562,3.1629,3.1613,3.1676,3.1685,3.1751,3.176,3.186,3.1877,3.1887,3.1889,3.1889,3.1888,3.1915,3.1905,3.1888,3.1887,3.1886,3.1885,0,3.1273,3.1288,3.1397,3.1445,3.1459,3.1531,3.1572,3.1632,3.1648,3.1733,3.1753,3.178,3.1857,3.1871,3.1963,3.1968,3.2088,3.2079,3.2071,3.207,3.2143,3.2136,3.2375,3.2407,3.2204,3.2206,3.2208,0,3.1375,3.1444,3.1498,3.1542,3.1571,3.1642,3.1685,3.1691,3.1738,3.1801,3.1854,3.1928,3.1989,3.2113,3.2141,3.221,3.2203,3.2283,3.2214,3.2212,3.2205,3.2201,3.2208,3.2296,3.2298,3.23,3.2301,0,3.1556,3.156,3.1623,3.169,3.1742,3.1795,3.1845,3.1882,3.1895,3.1948,3.2026,3.2073,3.2165,3.224,3.231,3.2339,3.2323,3.2323,3.2343,3.2345,3.2337,3.2343,3.2107,3.2317,3.2316,3.2315,3.2314,3.2313,3.1684,3.1744,3.1791,3.1863,3.1901,3.1948,3.2007,3.2031,3.2096,3.2171,3.2171,3.2256,3.2306,3.2397,3.2431,3.2499,3.2474,3.2504,3.2511,3.2519,3.2526,3.2326,3.2511,3.2511,3.251,3.251,3.251,0,3.1864,3.1893,3.1959,3.2029,3.2086,3.2065,3.2119,3.2168,3.2243,3.229,3.235,3.244,3.2513,3.2546,3.2618,3.2666,3.266,3.2684,3.2681,3.2688,3.2544,3.2519,3.2688,3.2688,3.2688,3.2688,3.2687,3.2687,3.1964,3.2064,3.2074,3.2192,3.2222,3.2305,3.2338,3.2382,3.2419,3.252,3.258,3.2601,3.2643,3.2718,3.2784,3.2792,3.2819,3.2847,3.2852,3.2716,3.2698,3.2681,3.2658,3.2853,3.2853,3.2991,3.2992,3.2993]},{"header":{"parameterUnit":"m.s-1","parameterCategory":1,"la1":30.2991,"la2":30.254,"lo1":-89.0895,"lo2":-89.0444,"dy":0.0017,"dx":0.0017,"nx":28,"ny":28,"refTime":"2025-07-12T21:00:00:Z","depth":0,"parameterNumber":3,"parameterNumberName":"V-component_of_WINDS"},"data":[0,0,0,0,0,0,0,0,0,0,0,0,0,0,0,0,0,0,0,0,0,0,0,0,0,0,0,0,0,0,0,0,0,0,0,0,0,0,0,0,0,0,0,0,0,0,0,0,0,0,0,0,0,0,0,0,0,0,-1.8907,-1.8908,0,-1.8968,-1.8969,-1.8969,-1.898,-1.8979,-1.8979,-1.8978,-1.904,-1.9042,-1.9044,0,0,0,0,0,0,0,0,0,0,0,0,0,-1.88,-1.8802,-1.8907,-1.8908,-1.8909,-1.8968,-1.8969,-1.897,-1.898,-1.8979,-1.8978,-1.8978,-1.9039,-1.9041,-1.9044,0,0,0,0,0,0,0,0,0,0,0,0,0,-1.8852,-1.8803,-1.8907,-1.8921,-1.8923,-1.8968,-1.8969,-1.897,-1.898,-1.8979,-1.8978,-1.8978,-1.9038,-1.9041,-1.9044,-1.9079,0,0,-1.9054,-1.9055,0,0,0,0,0,0,0,0,-1.8849,-1.8856,-1.8918,-1.892,-1.8922,-1.8965,-1.8954,-1.9007,-1.898,-1.8958,-1.8978,-1.8977,-1.9015,-1.902,-1.9034,-1.9082,-1.9085,-1.9054,-1.9056,-1.9058,-1.9058,0,0,0,0,0,0,0,-1.8846,-1.8854,-1.8931,-1.8919,-1.8922,-1.8924,-1.8931,-1.8964,-1.899,-1.896,-1.8961,-1.8968,-1.9016,-1.903,-1.9035,-1.9086,-1.9054,-1.9057,-1.9059,-1.906,-1.9167,-1.9168,0,0,0,0,0,0,-1.884,-1.8851,-1.8929,-1.8933,-1.8883,-1.8927,-1.8934,-1.8952,-1.899,-1.8995,-1.8969,-1.8968,-1.9025,-1.9031,-1.9037,-1.9081,-1.9058,-1.9061,-1.9062,-1.9166,-1.9167,-1.9168,0,0,0,0,0,0,-1.8837,-1.8847,-1.8927,-1.8892,-1.8903,-1.8929,-1.895,-1.8954,-1.8968,-1.8997,-1.9001,-1.8978,-1.9025,-1.9033,-1.9069,-1.9083,-1.9062,-1.9065,-1.9165,-1.9166,-1.9167,-1.9168,0,0,0,0,0,0,-1.8834,-1.8846,-1.8859,-1.8892,-1.8904,-1.8958,-1.8951,-1.8956,-1.8973,-1.8974,-1.9007,-1.9011,-1.9025,-1.9064,-1.9072,-1.9087,-1.9067,-1.9163,-1.9165,-1.9167,-1.9167,-1.9169,-1.9171,0,0,0,0,0,-1.883,-1.8857,-1.886,-1.8869,-1.8922,-1.8958,-1.8965,-1.8981,-1.8975,-1.8988,-1.9007,-1.901,-1.908,-1.9068,-1.9077,-1.9093,-1.9163,-1.9165,-1.9167,-1.9166,-1.9169,-1.9171,0,0,0,0,0,0,-1.8824,-1.8861,-1.8865,-1.8903,-1.8928,-1.896,-1.8978,-1.8983,-1.901,-1.9008,-1.9026,-1.9034,-1.9069,-1.9085,-1.907,-1.9129,-1.9121,-1.9125,-1.9117,-1.912,-1.9122,-1.9117,-1.907,0,0,0,0,0,-1.8827,-1.8854,-1.8885,-1.8916,-1.8928,-1.8951,-1.8967,-1.8977,-1.9003,-1.9013,-1.9034,-1.9059,-1.9087,-1.9104,-1.9132,-1.9169,-1.9177,-1.9185,-1.9187,-1.9189,-1.9192,-1.9213,-1.9217,-1.9175,-1.9175,-1.9175,0,0,-1.8834,-1.8858,-1.8873,-1.8915,-1.8935,-1.8962,-1.8959,-1.8988,-1.9008,-1.9017,-1.9053,-1.9069,-1.9098,-1.9135,-1.9153,-1.9149,-1.9205,-1.9191,-1.9193,-1.9195,-1.9215,-1.9219,-1.9223,-1.9176,-1.9176,-1.9176,0,0,-1.886,-1.888,-1.8908,-1.8928,-1.8959,-1.8974,-1.8981,-1.9013,-1.9024,-1.906,-1.9068,-1.9092,-1.9139,-1.916,-1.9176,-1.921,-1.9214,-1.9219,-1.923,-1.925,-1.9254,-1.9257,-1.9268,-1.9272,-1.9222,-1.9222,-1.9222,0,-1.8864,-1.8905,-1.8921,-1.895,-1.8968,-1.8978,-1.9006,-1.9025,-1.9063,-1.9075,-1.9071,-1.9131,-1.9151,-1.9193,-1.9202,-1.9215,-1.9223,-1.9214,-1.9252,-1.9255,-1.9258,-1.9269,-1.9274,-1.9222,-1.9222,-1.9222,-1.9222,0,-1.8908,-1.8937,-1.8955,-1.8992,-1.9012,-1.904,-1.9061,-1.908,-1.9088,-1.9104,-1.914,-1.9165,-1.9197,-1.9208,-1.9217,-1.9252,-1.9249,-1.9248,-1.924,-1.9262,-1.9273,-1.9278,-1.9222,-1.9222,-1.9222,-1.9222,0,0,-1.893,-1.8976,-1.8983,-1.8999,-1.9034,-1.9057,-1.9085,-1.9117,-1.9133,-1.9159,-1.9183,-1.9223,-1.9223,-1.9242,-1.9253,-1.9271,-1.9296,-1.9268,-1.9269,-1.9272,-1.9336,-1.9335,-1.934,-1.9299,-1.93,-1.9301,-1.9333,0,-1.8959,-1.9011,-1.9027,-1.907,-1.9096,-1.9107,-1.9132,-1.9156,-1.9172,-1.9197,-1.9214,-1.9242,-1.924,-1.9252,-1.927,-1.9289,-1.9309,-1.9287,-1.9322,-1.9323,-1.9313,-1.9346,-1.9345,-1.9374,-1.9337,-1.9338,-1.9339,0,-1.9,-1.9027,-1.9072,-1.9104,-1.9116,-1.9138,-1.9169,-1.9192,-1.922,-1.923,-1.9252,-1.9261,-1.9292,-1.9283,-1.9325,-1.931,-1.9326,-1.9337,-1.9339,-1.9342,-1.9331,-1.9349,-1.9384,-1.9388,-1.9346,-1.9345,-1.9345,0,-1.9011,-1.9058,-1.9092,-1.9106,-1.9144,-1.9159,-1.9176,-1.9203,-1.9221,-1.9248,-1.926,-1.929,-1.9307,-1.933,-1.9347,-1.934,-1.9388,-1.9381,-1.9397,-1.9396,-1.9406,-1.9404,-1.9442,-1.9417,-1.9417,-1.9417,-1.9417,0,-1.9041,-1.9068,-1.9097,-1.9117,-1.9148,-1.9167,-1.9197,-1.9215,-1.9239,-1.9263,-1.9274,-1.9297,-1.9319,-1.9344,-1.9358,-1.9391,-1.9398,-1.9407,-1.9411,-1.9406,-1.9405,-1.9415,-1.9413,-1.9418,-1.9418,-1.9418,-1.9417,0,-1.9057,-1.9078,-1.9115,-1.9148,-1.9158,-1.9179,-1.9207,-1.9228,-1.9244,-1.9275,-1.9283,-1.9309,-1.9339,-1.936,-1.9398,-1.9408,-1.9443,-1.9446,-1.9434,-1.9435,-1.945,-1.9448,-1.9495,-1.9502,-1.9473,-1.9473,-1.9473,0,-1.9075,-1.9096,-1.9132,-1.9149,-1.9165,-1.9193,-1.9211,-1.9231,-1.925,-1.9284,-1.93,-1.9331,-1.9357,-1.9406,-1.9428,-1.9458,-1.9461,-1.9476,-1.9466,-1.946,-1.9461,-1.9459,-1.9461,-1.9477,-1.9477,-1.9477,-1.9478,0,-1.9103,-1.9112,-1.9139,-1.9169,-1.9192,-1.9216,-1.9241,-1.9255,-1.9279,-1.93,-1.9331,-1.9351,-1.9391,-1.9422,-1.9454,-1.9471,-1.9478,-1.9481,-1.9486,-1.9481,-1.9472,-1.9476,-1.9437,-1.9479,-1.9479,-1.9479,-1.9479,-1.9479,-1.912,-1.9139,-1.9168,-1.9197,-1.9218,-1.9241,-1.9262,-1.9282,-1.9308,-1.9342,-1.9352,-1.9385,-1.9413,-1.9457,-1.9475,-1.95,-1.9499,-1.9506,-1.9508,-1.951,-1.9509,-1.9469,-1.9506,-1.9506,-1.9506,-1.9506,-1.9506,0,-1.9148,-1.9167,-1.9194,-1.9229,-1.9252,-1.9258,-1.9286,-1.9305,-1.9333,-1.9359,-1.9384,-1.942,-1.9451,-1.9476,-1.9507,-1.9523,-1.9527,-1.953,-1.9529,-1.9532,-1.9509,-1.9501,-1.9526,-1.9526,-1.9526,-1.9526,-1.9526,-1.9526,-1.9166,-1.9199,-1.9212,-1.9255,-1.9274,-1.9306,-1.9322,-1.9343,-1.9364,-1.9404,-1.9429,-1.9445,-1.9471,-1.9504,-1.9532,-1.9539,-1.9549,-1.9552,-1.9559,-1.9536,-1.9534,-1.9532,-1.9524,-1.9554,-1.9554,-1.958,-1.958,-1.958]}]]